Year,Month,Day,Hour,Minute,Value (Times are PST for temperature in C)
2006,08,14,00,00,16.60
2006,08,14,00,01,16.60
2006,08,14,00,02,16.60
2006,08,14,00,03,16.40
2006,08,14,00,04,16.40
2006,08,14,00,05,16.40
2006,08,14,00,06,16.40
2006,08,14,00,07,16.40
2006,08,14,00,08,16.40
2006,08,14,00,09,16.40
2006,08,14,00,10,16.30
2006,08,14,00,11,16.30
2006,08,14,00,12,16.30
2006,08,14,00,13,16.30
2006,08,14,00,14,16.20
2006,08,14,00,15,16.20
2006,08,14,00,16,16.20
2006,08,14,00,17,16.10
2006,08,14,00,18,16.10
2006,08,14,00,19,16.10
2006,08,14,00,20,16.10
2006,08,14,00,21,16.10
2006,08,14,00,22,16.00
2006,08,14,00,23,15.90
2006,08,14,00,24,15.90
2006,08,14,00,25,15.90
2006,08,14,00,26,15.90
2006,08,14,00,27,15.90
2006,08,14,00,28,15.80
2006,08,14,00,29,15.80
2006,08,14,00,30,15.80
2006,08,14,00,31,15.80
2006,08,14,00,32,15.80
2006,08,14,00,33,15.80
2006,08,14,00,34,15.80
2006,08,14,00,35,15.80
2006,08,14,00,36,15.70
2006,08,14,00,37,15.70
2006,08,14,00,38,15.70
2006,08,14,00,39,15.70
2006,08,14,00,40,15.70
2006,08,14,00,41,15.70
2006,08,14,00,42,15.70
2006,08,14,00,43,15.70
2006,08,14,00,44,15.70
2006,08,14,00,45,15.70
2006,08,14,00,46,15.70
2006,08,14,00,47,15.60
2006,08,14,00,48,15.60
2006,08,14,00,49,15.60
2006,08,14,00,50,15.60
2006,08,14,00,51,15.60
2006,08,14,00,52,15.60
2006,08,14,00,53,15.60
2006,08,14,00,54,15.60
2006,08,14,00,55,15.60
2006,08,14,00,56,15.60
2006,08,14,00,57,15.60
2006,08,14,00,58,15.60
2006,08,14,00,59,15.60
2006,08,14,01,00,15.60
2006,08,14,01,01,15.60
2006,08,14,01,02,15.50
2006,08,14,01,03,15.50
2006,08,14,01,04,15.50
2006,08,14,01,05,15.50
2006,08,14,01,06,15.50
2006,08,14,01,07,15.50
2006,08,14,01,08,15.50
2006,08,14,01,09,15.40
2006,08,14,01,10,15.40
2006,08,14,01,11,15.40
2006,08,14,01,12,15.40
2006,08,14,01,13,15.30
2006,08,14,01,14,15.30
2006,08,14,01,15,15.30
2006,08,14,01,16,15.30
2006,08,14,01,17,15.30
2006,08,14,01,18,15.30
2006,08,14,01,19,15.30
2006,08,14,01,20,15.30
2006,08,14,01,21,15.30
2006,08,14,01,22,15.30
2006,08,14,01,23,15.20
2006,08,14,01,24,15.20
2006,08,14,01,25,15.20
2006,08,14,01,26,15.20
2006,08,14,01,27,15.20
2006,08,14,01,28,15.20
2006,08,14,01,29,15.20
2006,08,14,01,30,15.10
2006,08,14,01,31,15.10
2006,08,14,01,32,15.10
2006,08,14,01,33,15.10
2006,08,14,01,34,15.10
2006,08,14,01,35,15.00
2006,08,14,01,36,15.00
2006,08,14,01,37,15.00
2006,08,14,01,38,15.00
2006,08,14,01,39,15.00
2006,08,14,01,40,15.00
2006,08,14,01,41,15.00
2006,08,14,01,42,14.90
2006,08,14,01,43,14.90
2006,08,14,01,44,14.90
2006,08,14,01,45,14.90
2006,08,14,01,46,14.90
2006,08,14,01,47,14.90
2006,08,14,01,48,14.90
2006,08,14,01,49,14.90
2006,08,14,01,50,14.80
2006,08,14,01,51,14.80
2006,08,14,01,52,14.80
2006,08,14,01,53,14.80
2006,08,14,01,54,14.80
2006,08,14,01,55,14.80
2006,08,14,01,56,14.80
2006,08,14,01,57,14.80
2006,08,14,01,58,14.80
2006,08,14,01,59,14.80
2006,08,14,02,00,14.80
2006,08,14,02,01,14.80
2006,08,14,02,02,14.80
2006,08,14,02,03,14.80
2006,08,14,02,04,14.80
2006,08,14,02,05,14.80
2006,08,14,02,06,14.80
2006,08,14,02,07,14.80
2006,08,14,02,08,14.80
2006,08,14,02,09,14.80
2006,08,14,02,10,14.80
2006,08,14,02,11,14.80
2006,08,14,02,12,14.80
2006,08,14,02,13,14.80
2006,08,14,02,14,14.80
2006,08,14,02,15,14.80
2006,08,14,02,16,14.80
2006,08,14,02,17,14.80
2006,08,14,02,18,14.80
2006,08,14,02,19,14.80
2006,08,14,02,20,14.80
2006,08,14,02,21,14.70
2006,08,14,02,22,14.70
2006,08,14,02,23,14.70
2006,08,14,02,24,14.70
2006,08,14,02,25,14.70
2006,08,14,02,26,14.70
2006,08,14,02,27,14.60
2006,08,14,02,28,14.60
2006,08,14,02,29,14.60
2006,08,14,02,30,14.60
2006,08,14,02,31,14.60
2006,08,14,02,32,14.60
2006,08,14,02,33,14.60
2006,08,14,02,34,14.60
2006,08,14,02,35,14.50
2006,08,14,02,36,14.50
2006,08,14,02,37,14.50
2006,08,14,02,38,14.50
2006,08,14,02,39,14.50
2006,08,14,02,40,14.50
2006,08,14,02,41,14.50
2006,08,14,02,42,14.50
2006,08,14,02,43,14.50
2006,08,14,02,44,14.50
2006,08,14,02,45,14.40
2006,08,14,02,46,14.40
2006,08,14,02,47,14.40
2006,08,14,02,48,14.40
2006,08,14,02,49,14.40
2006,08,14,02,50,14.40
2006,08,14,02,51,14.40
2006,08,14,02,52,14.40
2006,08,14,02,53,14.40
2006,08,14,02,54,14.40
2006,08,14,02,55,14.30
2006,08,14,02,56,14.30
2006,08,14,02,57,14.30
2006,08,14,02,58,14.30
2006,08,14,02,59,14.30
2006,08,14,03,00,14.30
2006,08,14,03,01,14.30
2006,08,14,03,02,14.30
2006,08,14,03,03,14.30
2006,08,14,03,04,14.30
2006,08,14,03,05,14.30
2006,08,14,03,06,14.20
2006,08,14,03,07,14.20
2006,08,14,03,08,14.20
2006,08,14,03,09,14.20
2006,08,14,03,10,14.20
2006,08,14,03,11,14.20
2006,08,14,03,12,14.20
2006,08,14,03,13,14.20
2006,08,14,03,14,14.20
2006,08,14,03,15,14.10
2006,08,14,03,16,14.10
2006,08,14,03,17,14.10
2006,08,14,03,18,14.00
2006,08,14,03,19,14.00
2006,08,14,03,20,14.00
2006,08,14,03,21,14.00
2006,08,14,03,22,13.90
2006,08,14,03,23,13.90
2006,08,14,03,24,13.90
2006,08,14,03,25,13.90
2006,08,14,03,26,13.80
2006,08,14,03,27,13.80
2006,08,14,03,28,13.80
2006,08,14,03,29,13.80
2006,08,14,03,30,13.80
2006,08,14,03,31,13.80
2006,08,14,03,32,13.70
2006,08,14,03,33,13.70
2006,08,14,03,34,13.70
2006,08,14,03,35,13.70
2006,08,14,03,36,13.80
2006,08,14,03,37,13.80
2006,08,14,03,38,13.80
2006,08,14,03,39,13.80
2006,08,14,03,40,13.80
2006,08,14,03,41,13.80
2006,08,14,03,42,13.80
2006,08,14,03,43,13.80
2006,08,14,03,44,13.80
2006,08,14,03,45,13.70
2006,08,14,03,46,13.70
2006,08,14,03,47,13.70
2006,08,14,03,48,13.70
2006,08,14,03,49,13.70
2006,08,14,03,50,13.70
2006,08,14,03,51,13.70
2006,08,14,03,52,13.70
2006,08,14,03,53,13.60
2006,08,14,03,54,13.60
2006,08,14,03,55,13.60
2006,08,14,03,56,13.60
2006,08,14,03,57,13.60
2006,08,14,03,58,13.60
2006,08,14,03,59,13.50
2006,08,14,04,00,13.50
2006,08,14,04,01,13.50
2006,08,14,04,02,13.50
2006,08,14,04,03,13.60
2006,08,14,04,04,13.60
2006,08,14,04,05,13.60
2006,08,14,04,06,13.60
2006,08,14,04,07,13.60
2006,08,14,04,08,13.60
2006,08,14,04,09,13.50
2006,08,14,04,10,13.50
2006,08,14,04,11,13.50
2006,08,14,04,12,13.50
2006,08,14,04,13,13.50
2006,08,14,04,14,13.40
2006,08,14,04,15,13.40
2006,08,14,04,16,13.40
2006,08,14,04,17,13.40
2006,08,14,04,18,13.30
2006,08,14,04,19,13.30
2006,08,14,04,20,13.30
2006,08,14,04,21,13.30
2006,08,14,04,22,13.30
2006,08,14,04,23,13.30
2006,08,14,04,24,13.30
2006,08,14,04,25,13.30
2006,08,14,04,26,13.30
2006,08,14,04,27,13.30
2006,08,14,04,28,13.30
2006,08,14,04,29,13.30
2006,08,14,04,30,13.30
2006,08,14,04,31,13.30
2006,08,14,04,32,13.30
2006,08,14,04,33,13.30
2006,08,14,04,34,13.30
2006,08,14,04,35,13.30
2006,08,14,04,36,13.30
2006,08,14,04,37,13.30
2006,08,14,04,38,13.30
2006,08,14,04,39,13.30
2006,08,14,04,40,13.30
2006,08,14,04,41,13.30
2006,08,14,04,42,13.30
2006,08,14,04,43,13.30
2006,08,14,04,44,13.30
2006,08,14,04,45,13.30
2006,08,14,04,46,13.30
2006,08,14,04,47,13.30
2006,08,14,04,48,13.30
2006,08,14,04,49,13.20
2006,08,14,04,50,13.20
2006,08,14,04,51,13.20
2006,08,14,04,52,13.20
2006,08,14,04,53,13.20
2006,08,14,04,54,13.10
2006,08,14,04,55,13.10
2006,08,14,04,56,13.10
2006,08,14,04,57,13.10
2006,08,14,04,58,13.10
2006,08,14,04,59,13.10
2006,08,14,05,00,13.10
2006,08,14,05,01,13.00
2006,08,14,05,02,13.00
2006,08,14,05,03,13.00
2006,08,14,05,04,13.00
2006,08,14,05,05,13.00
2006,08,14,05,06,13.00
2006,08,14,05,07,13.00
2006,08,14,05,08,12.90
2006,08,14,05,09,12.90
2006,08,14,05,10,12.90
2006,08,14,05,11,12.90
2006,08,14,05,12,12.90
2006,08,14,05,13,12.90
2006,08,14,05,14,12.90
2006,08,14,05,15,12.90
2006,08,14,05,16,12.90
2006,08,14,05,17,12.80
2006,08,14,05,18,12.80
2006,08,14,05,19,12.80
2006,08,14,05,20,12.80
2006,08,14,05,21,12.80
2006,08,14,05,22,12.80
2006,08,14,05,23,12.90
2006,08,14,05,24,12.90
2006,08,14,05,25,12.90
2006,08,14,05,26,12.90
2006,08,14,05,27,12.90
2006,08,14,05,28,12.90
2006,08,14,05,29,12.90
2006,08,14,05,30,12.90
2006,08,14,05,31,12.90
2006,08,14,05,32,12.90
2006,08,14,05,33,12.90
2006,08,14,05,34,12.90
2006,08,14,05,35,12.80
2006,08,14,05,36,12.80
2006,08,14,05,37,12.80
2006,08,14,05,38,12.80
2006,08,14,05,39,12.80
2006,08,14,05,40,12.80
2006,08,14,05,41,12.80
2006,08,14,05,42,12.80
2006,08,14,05,43,12.80
2006,08,14,05,44,12.80
2006,08,14,05,45,12.80
2006,08,14,05,46,12.80
2006,08,14,05,47,12.80
2006,08,14,05,48,12.80
2006,08,14,05,49,12.80
2006,08,14,05,50,12.80
2006,08,14,05,51,12.80
2006,08,14,05,52,12.80
2006,08,14,05,53,12.80
2006,08,14,05,54,12.80
2006,08,14,05,55,12.70
2006,08,14,05,56,12.70
2006,08,14,05,57,12.70
2006,08,14,05,58,12.70
2006,08,14,05,59,12.70
2006,08,14,06,00,12.70
2006,08,14,06,01,12.60
2006,08,14,06,02,12.60
2006,08,14,06,03,12.60
2006,08,14,06,04,12.60
2006,08,14,06,05,12.60
2006,08,14,06,06,12.60
2006,08,14,06,07,12.60
2006,08,14,06,08,12.60
2006,08,14,06,09,12.60
2006,08,14,06,10,12.50
2006,08,14,06,11,12.50
2006,08,14,06,12,12.50
2006,08,14,06,13,12.50
2006,08,14,06,14,12.50
2006,08,14,06,15,12.50
2006,08,14,06,16,12.50
2006,08,14,06,17,12.50
2006,08,14,06,18,12.50
2006,08,14,06,19,12.50
2006,08,14,06,20,12.50
2006,08,14,06,21,12.50
2006,08,14,06,22,12.50
2006,08,14,06,23,12.50
2006,08,14,06,24,12.50
2006,08,14,06,25,12.50
2006,08,14,06,26,12.50
2006,08,14,06,27,12.50
2006,08,14,06,28,12.50
2006,08,14,06,29,12.50
2006,08,14,06,30,12.50
2006,08,14,06,31,12.50
2006,08,14,06,32,12.50
2006,08,14,06,33,12.50
2006,08,14,06,34,12.50
2006,08,14,06,35,12.50
2006,08,14,06,36,12.50
2006,08,14,06,37,12.50
2006,08,14,06,38,12.60
2006,08,14,06,39,12.60
2006,08,14,06,40,12.60
2006,08,14,06,41,12.60
2006,08,14,06,42,12.60
2006,08,14,06,43,12.60
2006,08,14,06,44,12.60
2006,08,14,06,45,12.70
2006,08,14,06,46,12.70
2006,08,14,06,47,12.70
2006,08,14,06,48,12.80
2006,08,14,06,49,12.80
2006,08,14,06,50,12.80
2006,08,14,06,51,12.90
2006,08,14,06,52,12.90
2006,08,14,06,53,13.00
2006,08,14,06,54,13.10
2006,08,14,06,55,13.10
2006,08,14,06,56,13.20
2006,08,14,06,57,13.20
2006,08,14,06,58,13.30
2006,08,14,06,59,13.30
2006,08,14,07,00,13.30
2006,08,14,07,01,13.40
2006,08,14,07,02,13.50
2006,08,14,07,03,13.50
2006,08,14,07,04,13.60
2006,08,14,07,05,13.60
2006,08,14,07,06,13.70
2006,08,14,07,07,13.70
2006,08,14,07,08,13.80
2006,08,14,07,09,13.90
2006,08,14,07,10,13.90
2006,08,14,07,11,14.00
2006,08,14,07,12,14.00
2006,08,14,07,13,14.20
2006,08,14,07,14,14.20
2006,08,14,07,15,14.30
2006,08,14,07,16,14.40
2006,08,14,07,17,14.40
2006,08,14,07,18,14.50
2006,08,14,07,19,14.50
2006,08,14,07,20,14.50
2006,08,14,07,21,14.60
2006,08,14,07,22,14.60
2006,08,14,07,23,14.60
2006,08,14,07,24,14.70
2006,08,14,07,25,14.70
2006,08,14,07,26,14.80
2006,08,14,07,27,14.80
2006,08,14,07,28,14.80
2006,08,14,07,29,14.90
2006,08,14,07,30,15.00
2006,08,14,07,31,15.00
2006,08,14,07,32,15.10
2006,08,14,07,33,15.10
2006,08,14,07,34,15.20
2006,08,14,07,35,15.30
2006,08,14,07,36,15.30
2006,08,14,07,37,15.40
2006,08,14,07,38,15.50
2006,08,14,07,39,15.60
2006,08,14,07,40,15.70
2006,08,14,07,41,15.70
2006,08,14,07,42,15.80
2006,08,14,07,43,16.00
2006,08,14,07,44,16.10
2006,08,14,07,45,16.20
2006,08,14,07,46,16.30
2006,08,14,07,47,16.40
2006,08,14,07,48,16.60
2006,08,14,07,49,16.70
2006,08,14,07,50,16.80
2006,08,14,07,51,16.90
2006,08,14,07,52,17.00
2006,08,14,07,53,17.00
2006,08,14,07,54,17.10
2006,08,14,07,55,17.20
2006,08,14,07,56,17.30
2006,08,14,07,57,17.30
2006,08,14,07,58,17.40
2006,08,14,07,59,17.50
2006,08,14,08,00,17.50
2006,08,14,08,01,17.60
2006,08,14,08,02,17.60
2006,08,14,08,03,17.70
2006,08,14,08,04,17.80
2006,08,14,08,05,17.80
2006,08,14,08,06,17.90
2006,08,14,08,07,17.90
2006,08,14,08,08,17.90
2006,08,14,08,09,18.10
2006,08,14,08,10,18.10
2006,08,14,08,11,18.20
2006,08,14,08,12,18.20
2006,08,14,08,13,18.20
2006,08,14,08,14,18.30
2006,08,14,08,15,18.40
2006,08,14,08,16,18.50
2006,08,14,08,17,18.60
2006,08,14,08,18,18.70
2006,08,14,08,19,18.80
2006,08,14,08,20,18.90
2006,08,14,08,21,19.00
2006,08,14,08,22,19.10
2006,08,14,08,23,19.20
2006,08,14,08,24,19.30
2006,08,14,08,25,19.40
2006,08,14,08,26,19.40
2006,08,14,08,27,19.50
2006,08,14,08,28,19.50
2006,08,14,08,29,19.50
2006,08,14,08,30,19.50
2006,08,14,08,31,19.50
2006,08,14,08,32,19.50
2006,08,14,08,33,19.50
2006,08,14,08,34,19.50
2006,08,14,08,35,19.50
2006,08,14,08,36,19.50
2006,08,14,08,37,19.60
2006,08,14,08,38,19.60
2006,08,14,08,39,19.70
2006,08,14,08,40,19.70
2006,08,14,08,41,19.70
2006,08,14,08,42,19.80
2006,08,14,08,43,19.80
2006,08,14,08,44,19.80
2006,08,14,08,45,19.90
2006,08,14,08,46,19.90
2006,08,14,08,47,19.90
2006,08,14,08,48,19.90
2006,08,14,08,49,19.80
2006,08,14,08,50,19.90
2006,08,14,08,51,19.90
2006,08,14,08,52,19.80
2006,08,14,08,53,19.80
2006,08,14,08,54,19.80
2006,08,14,08,55,19.60
2006,08,14,08,56,19.60
2006,08,14,08,57,19.50
2006,08,14,08,58,19.50
2006,08,14,08,59,19.50
2006,08,14,09,00,19.50
2006,08,14,09,01,19.60
2006,08,14,09,02,19.50
2006,08,14,09,03,19.40
2006,08,14,09,04,19.40
2006,08,14,09,05,19.30
2006,08,14,09,06,19.40
2006,08,14,09,07,19.40
2006,08,14,09,08,19.40
2006,08,14,09,09,19.40
2006,08,14,09,10,19.50
2006,08,14,09,11,19.50
2006,08,14,09,12,19.50
2006,08,14,09,13,19.60
2006,08,14,09,14,19.70
2006,08,14,09,15,19.70
2006,08,14,09,16,19.80
2006,08,14,09,17,19.80
2006,08,14,09,18,19.80
2006,08,14,09,19,19.80
2006,08,14,09,20,19.80
2006,08,14,09,21,19.80
2006,08,14,09,22,19.80
2006,08,14,09,23,19.90
2006,08,14,09,24,20.00
2006,08,14,09,25,20.00
2006,08,14,09,26,19.90
2006,08,14,09,27,19.90
2006,08,14,09,28,19.80
2006,08,14,09,29,19.80
2006,08,14,09,30,19.70
2006,08,14,09,31,19.70
2006,08,14,09,32,19.60
2006,08,14,09,33,19.40
2006,08,14,09,34,19.40
2006,08,14,09,35,19.40
2006,08,14,09,36,19.50
2006,08,14,09,37,19.50
2006,08,14,09,38,19.40
2006,08,14,09,39,19.30
2006,08,14,09,40,19.30
2006,08,14,09,41,19.40
2006,08,14,09,42,19.40
2006,08,14,09,43,19.30
2006,08,14,09,44,19.30
2006,08,14,09,45,19.30
2006,08,14,09,46,19.40
2006,08,14,09,47,19.50
2006,08,14,09,48,19.40
2006,08,14,09,49,19.30
2006,08,14,09,50,19.20
2006,08,14,09,51,19.10
2006,08,14,09,52,18.90
2006,08,14,09,53,18.90
2006,08,14,09,54,18.90
2006,08,14,09,55,18.90
2006,08,14,09,56,19.00
2006,08,14,09,57,19.10
2006,08,14,09,58,19.20
2006,08,14,09,59,19.30
2006,08,14,10,00,19.50
2006,08,14,10,01,19.50
2006,08,14,10,02,19.40
2006,08,14,10,03,19.50
2006,08,14,10,04,19.50
2006,08,14,10,05,19.60
2006,08,14,10,06,19.60
2006,08,14,10,07,19.80
2006,08,14,10,08,19.90
2006,08,14,10,09,20.00
2006,08,14,10,10,20.00
2006,08,14,10,11,19.80
2006,08,14,10,12,19.80
2006,08,14,10,13,19.80
2006,08,14,10,14,19.70
2006,08,14,10,15,19.80
2006,08,14,10,16,19.90
2006,08,14,10,17,19.80
2006,08,14,10,18,19.80
2006,08,14,10,19,19.90
2006,08,14,10,20,19.90
2006,08,14,10,21,19.90
2006,08,14,10,22,19.90
2006,08,14,10,23,20.10
2006,08,14,10,24,20.10
2006,08,14,10,25,20.20
2006,08,14,10,26,20.20
2006,08,14,10,27,20.30
2006,08,14,10,28,20.30
2006,08,14,10,29,20.20
2006,08,14,10,30,20.10
2006,08,14,10,31,20.20
2006,08,14,10,32,20.20
2006,08,14,10,33,20.20
2006,08,14,10,34,20.20
2006,08,14,10,35,20.20
2006,08,14,10,36,20.20
2006,08,14,10,37,20.10
2006,08,14,10,38,20.10
2006,08,14,10,39,20.10
2006,08,14,10,40,20.10
2006,08,14,10,41,20.10
2006,08,14,10,42,20.30
2006,08,14,10,43,20.50
2006,08,14,10,44,20.60
2006,08,14,10,45,20.70
2006,08,14,10,46,20.80
2006,08,14,10,47,20.80
2006,08,14,10,48,20.80
2006,08,14,10,49,20.70
2006,08,14,10,50,20.80
2006,08,14,10,51,20.80
2006,08,14,10,52,20.70
2006,08,14,10,53,20.60
2006,08,14,10,54,20.70
2006,08,14,10,55,20.90
2006,08,14,10,56,21.00
2006,08,14,10,57,21.00
2006,08,14,10,58,21.10
2006,08,14,10,59,21.00
2006,08,14,11,00,20.80
2006,08,14,11,01,20.70
2006,08,14,11,02,20.70
2006,08,14,11,03,20.70
2006,08,14,11,04,20.80
2006,08,14,11,05,20.90
2006,08,14,11,06,20.90
2006,08,14,11,07,21.00
2006,08,14,11,08,21.10
2006,08,14,11,09,21.10
2006,08,14,11,10,21.10
2006,08,14,11,11,21.10
2006,08,14,11,12,21.10
2006,08,14,11,13,21.10
2006,08,14,11,14,21.10
2006,08,14,11,15,21.20
2006,08,14,11,16,21.30
2006,08,14,11,17,21.30
2006,08,14,11,18,21.40
2006,08,14,11,19,21.40
2006,08,14,11,20,21.30
2006,08,14,11,21,21.30
2006,08,14,11,22,21.30
2006,08,14,11,23,21.40
2006,08,14,11,24,21.40
2006,08,14,11,25,21.30
2006,08,14,11,26,21.00
2006,08,14,11,27,20.90
2006,08,14,11,28,20.90
2006,08,14,11,29,21.00
2006,08,14,11,30,21.10
2006,08,14,11,31,21.10
2006,08,14,11,32,21.20
2006,08,14,11,33,21.20
2006,08,14,11,34,21.20
2006,08,14,11,35,21.00
2006,08,14,11,36,20.80
2006,08,14,11,37,20.80
2006,08,14,11,38,20.60
2006,08,14,11,39,20.50
2006,08,14,11,40,20.50
2006,08,14,11,41,20.40
2006,08,14,11,42,20.30
2006,08,14,11,43,20.40
2006,08,14,11,44,20.40
2006,08,14,11,45,20.50
2006,08,14,11,46,20.50
2006,08,14,11,47,20.50
2006,08,14,11,48,20.40
2006,08,14,11,49,20.40
2006,08,14,11,50,20.50
2006,08,14,11,51,20.50
2006,08,14,11,52,20.60
2006,08,14,11,53,20.60
2006,08,14,11,54,20.70
2006,08,14,11,55,20.80
2006,08,14,11,56,21.00
2006,08,14,11,57,21.10
2006,08,14,11,58,21.10
2006,08,14,11,59,21.00
2006,08,14,12,00,21.00
2006,08,14,12,01,21.20
2006,08,14,12,02,21.10
2006,08,14,12,03,21.10
2006,08,14,12,04,21.10
2006,08,14,12,05,21.10
2006,08,14,12,06,21.10
2006,08,14,12,07,21.20
2006,08,14,12,08,21.10
2006,08,14,12,09,21.10
2006,08,14,12,10,21.20
2006,08,14,12,11,21.30
2006,08,14,12,12,21.40
2006,08,14,12,13,21.50
2006,08,14,12,14,21.60
2006,08,14,12,15,21.60
2006,08,14,12,16,21.60
2006,08,14,12,17,21.60
2006,08,14,12,18,21.50
2006,08,14,12,19,21.60
2006,08,14,12,20,21.60
2006,08,14,12,21,21.60
2006,08,14,12,22,21.60
2006,08,14,12,23,21.60
2006,08,14,12,24,21.60
2006,08,14,12,25,21.60
2006,08,14,12,26,21.60
2006,08,14,12,27,21.50
2006,08,14,12,28,21.40
2006,08,14,12,29,21.20
2006,08,14,12,30,21.00
2006,08,14,12,31,21.00
2006,08,14,12,32,21.00
2006,08,14,12,33,21.10
2006,08,14,12,34,21.20
2006,08,14,12,35,21.40
2006,08,14,12,36,21.60
2006,08,14,12,37,21.70
2006,08,14,12,38,21.80
2006,08,14,12,39,21.70
2006,08,14,12,40,21.80
2006,08,14,12,41,21.90
2006,08,14,12,42,21.80
2006,08,14,12,43,21.50
2006,08,14,12,44,21.30
2006,08,14,12,45,21.30
2006,08,14,12,46,21.30
2006,08,14,12,47,21.60
2006,08,14,12,48,21.60
2006,08,14,12,49,21.80
2006,08,14,12,50,21.80
2006,08,14,12,51,21.50
2006,08,14,12,52,21.10
2006,08,14,12,53,21.10
2006,08,14,12,54,21.10
2006,08,14,12,55,21.20
2006,08,14,12,56,21.30
2006,08,14,12,57,21.50
2006,08,14,12,58,21.60
2006,08,14,12,59,21.60
2006,08,14,13,00,21.60
2006,08,14,13,01,21.60
2006,08,14,13,02,21.60
2006,08,14,13,03,21.60
2006,08,14,13,04,21.60
2006,08,14,13,05,21.70
2006,08,14,13,06,21.70
2006,08,14,13,07,21.60
2006,08,14,13,08,21.60
2006,08,14,13,09,21.60
2006,08,14,13,10,21.50
2006,08,14,13,11,21.40
2006,08,14,13,12,21.40
2006,08,14,13,13,21.30
2006,08,14,13,14,21.30
2006,08,14,13,15,21.30
2006,08,14,13,16,21.30
2006,08,14,13,17,21.30
2006,08,14,13,18,21.30
2006,08,14,13,19,21.40
2006,08,14,13,20,21.60
2006,08,14,13,21,21.60
2006,08,14,13,22,21.70
2006,08,14,13,23,21.80
2006,08,14,13,24,21.90
2006,08,14,13,25,21.90
2006,08,14,13,26,22.10
2006,08,14,13,27,22.10
2006,08,14,13,28,22.10
2006,08,14,13,29,22.10
2006,08,14,13,30,22.10
2006,08,14,13,31,22.10
2006,08,14,13,32,22.20
2006,08,14,13,33,22.10
2006,08,14,13,34,22.10
2006,08,14,13,35,22.00
2006,08,14,13,36,22.00
2006,08,14,13,37,22.00
2006,08,14,13,38,22.00
2006,08,14,13,39,22.20
2006,08,14,13,40,22.30
2006,08,14,13,41,22.30
2006,08,14,13,42,22.20
2006,08,14,13,43,22.10
2006,08,14,13,44,22.00
2006,08,14,13,45,21.90
2006,08,14,13,46,21.80
2006,08,14,13,47,21.90
2006,08,14,13,48,22.00
2006,08,14,13,49,22.10
2006,08,14,13,50,22.10
2006,08,14,13,51,22.20
2006,08,14,13,52,22.30
2006,08,14,13,53,22.50
2006,08,14,13,54,22.60
2006,08,14,13,55,22.60
2006,08,14,13,56,22.60
2006,08,14,13,57,22.60
2006,08,14,13,58,22.60
2006,08,14,13,59,22.60
2006,08,14,14,00,22.50
2006,08,14,14,01,22.40
2006,08,14,14,02,22.40
2006,08,14,14,03,22.10
2006,08,14,14,04,21.90
2006,08,14,14,05,21.60
2006,08,14,14,06,21.60
2006,08,14,14,07,21.70
2006,08,14,14,08,21.80
2006,08,14,14,09,21.90
2006,08,14,14,10,21.90
2006,08,14,14,11,21.90
2006,08,14,14,12,21.90
2006,08,14,14,13,21.80
2006,08,14,14,14,21.70
2006,08,14,14,15,21.70
2006,08,14,14,16,21.60
2006,08,14,14,17,21.70
2006,08,14,14,18,21.70
2006,08,14,14,19,21.60
2006,08,14,14,20,21.60
2006,08,14,14,21,21.60
2006,08,14,14,22,21.60
2006,08,14,14,23,21.70
2006,08,14,14,24,21.70
2006,08,14,14,25,21.80
2006,08,14,14,26,21.90
2006,08,14,14,27,22.00
2006,08,14,14,28,21.90
2006,08,14,14,29,21.90
2006,08,14,14,30,21.90
2006,08,14,14,31,21.90
2006,08,14,14,32,22.00
2006,08,14,14,33,22.00
2006,08,14,14,34,21.90
2006,08,14,14,35,21.90
2006,08,14,14,36,22.00
2006,08,14,14,37,22.00
2006,08,14,14,38,21.90
2006,08,14,14,39,21.80
2006,08,14,14,40,21.80
2006,08,14,14,41,21.90
2006,08,14,14,42,22.00
2006,08,14,14,43,22.10
2006,08,14,14,44,22.10
2006,08,14,14,45,22.10
2006,08,14,14,46,22.10
2006,08,14,14,47,22.10
2006,08,14,14,48,21.70
2006,08,14,14,49,21.70
2006,08,14,14,50,21.70
2006,08,14,14,51,21.60
2006,08,14,14,52,21.60
2006,08,14,14,53,21.60
2006,08,14,14,54,21.40
2006,08,14,14,55,21.30
2006,08,14,14,56,21.30
2006,08,14,14,57,21.30
2006,08,14,14,58,21.40
2006,08,14,14,59,21.60
2006,08,14,15,00,21.70
2006,08,14,15,01,21.70
2006,08,14,15,02,21.60
2006,08,14,15,03,21.60
2006,08,14,15,04,21.50
2006,08,14,15,05,21.40
2006,08,14,15,06,21.50
2006,08,14,15,07,21.60
2006,08,14,15,08,21.50
2006,08,14,15,09,21.50
2006,08,14,15,10,21.70
2006,08,14,15,11,21.90
2006,08,14,15,12,22.00
2006,08,14,15,13,22.00
2006,08,14,15,14,22.10
2006,08,14,15,15,22.10
2006,08,14,15,16,22.10
2006,08,14,15,17,22.10
2006,08,14,15,18,22.00
2006,08,14,15,19,22.20
2006,08,14,15,20,22.40
2006,08,14,15,21,22.50
2006,08,14,15,22,22.30
2006,08,14,15,23,22.30
2006,08,14,15,24,22.30
2006,08,14,15,25,22.30
2006,08,14,15,26,22.40
2006,08,14,15,27,22.70
2006,08,14,15,28,22.90
2006,08,14,15,29,22.70
2006,08,14,15,30,22.60
2006,08,14,15,31,22.60
2006,08,14,15,32,22.60
2006,08,14,15,33,22.70
2006,08,14,15,34,22.60
2006,08,14,15,35,22.60
2006,08,14,15,36,22.60
2006,08,14,15,37,22.60
2006,08,14,15,38,22.60
2006,08,14,15,39,22.70
2006,08,14,15,40,22.70
2006,08,14,15,41,22.80
2006,08,14,15,42,22.90
2006,08,14,15,43,22.90
2006,08,14,15,44,22.90
2006,08,14,15,45,23.10
2006,08,14,15,46,23.30
2006,08,14,15,47,23.30
2006,08,14,15,48,23.30
2006,08,14,15,49,23.30
2006,08,14,15,50,23.30
2006,08,14,15,51,23.30
2006,08,14,15,52,23.30
2006,08,14,15,53,23.30
2006,08,14,15,54,23.40
2006,08,14,15,55,23.60
2006,08,14,15,56,23.70
2006,08,14,15,57,23.70
2006,08,14,15,58,23.60
2006,08,14,15,59,23.40
2006,08,14,16,00,23.50
2006,08,14,16,01,23.60
2006,08,14,16,02,23.70
2006,08,14,16,03,23.80
2006,08,14,16,04,23.70
2006,08,14,16,05,23.70
2006,08,14,16,06,23.80
2006,08,14,16,07,23.80
2006,08,14,16,08,23.90
2006,08,14,16,09,23.90
2006,08,14,16,10,24.00
2006,08,14,16,11,24.20
2006,08,14,16,12,24.30
2006,08,14,16,13,24.40
2006,08,14,16,14,24.50
2006,08,14,16,15,24.60
2006,08,14,16,16,24.60
2006,08,14,16,17,24.50
2006,08,14,16,18,24.50
2006,08,14,16,19,24.50
2006,08,14,16,20,24.60
2006,08,14,16,21,24.80
2006,08,14,16,22,24.80
2006,08,14,16,23,24.90
2006,08,14,16,24,25.00
2006,08,14,16,25,25.00
2006,08,14,16,26,25.10
2006,08,14,16,27,25.30
2006,08,14,16,28,25.40
2006,08,14,16,29,25.50
2006,08,14,16,30,25.60
2006,08,14,16,31,25.60
2006,08,14,16,32,25.50
2006,08,14,16,33,25.50
2006,08,14,16,34,25.50
2006,08,14,16,35,25.40
2006,08,14,16,36,25.40
2006,08,14,16,37,25.40
2006,08,14,16,38,25.40
2006,08,14,16,39,25.50
2006,08,14,16,40,25.60
2006,08,14,16,41,25.70
2006,08,14,16,42,25.80
2006,08,14,16,43,25.80
2006,08,14,16,44,25.80
2006,08,14,16,45,25.80
2006,08,14,16,46,25.90
2006,08,14,16,47,26.00
2006,08,14,16,48,26.10
2006,08,14,16,49,26.10
2006,08,14,16,50,26.20
2006,08,14,16,51,26.20
2006,08,14,16,52,26.20
2006,08,14,16,53,26.20
2006,08,14,16,54,26.00
2006,08,14,16,55,26.00
2006,08,14,16,56,26.00
2006,08,14,16,57,26.00
2006,08,14,16,58,26.00
2006,08,14,16,59,26.00
2006,08,14,17,00,25.90
2006,08,14,17,01,25.90
2006,08,14,17,02,25.80
2006,08,14,17,03,25.80
2006,08,14,17,04,25.90
2006,08,14,17,05,25.90
2006,08,14,17,06,25.90
2006,08,14,17,07,25.90
2006,08,14,17,08,25.90
2006,08,14,17,09,25.80
2006,08,14,17,10,25.70
2006,08,14,17,11,25.70
2006,08,14,17,12,25.70
2006,08,14,17,13,25.70
2006,08,14,17,14,25.60
2006,08,14,17,15,25.50
2006,08,14,17,16,25.50
2006,08,14,17,17,25.50
2006,08,14,17,18,25.50
2006,08,14,17,19,25.50